Regional Weather Roundup
Issued by NWS Sterling, VA

Home | Current Version | Previous Version | Graphics & Text | Print | Product List | Glossary On
Versions: 1 2 3 4 5 6 7 8 9 10 11 12 13 14 15 16 17 18 19 20 21 22 23 24 25 26 27 28 29 30 31 32 33 34 35 36 37 38 39 40 41 42 43 44 45 46 47 48 49 50
612
ASUS41 KLWX 121710
RWRLWX

REGIONAL WEATHER ROUNDUP
NATIONAL WEATHER SERVICE BALTIMORE MD/WASHINGTON DC
1200 PM EST FRI FEB 12 2016

Note: "FAIR" indicates few or no clouds below 12,000 feet
with no significant weather and/or obstructions to visibility.
 TC=TEMPERATURE CELSIUS

 * =Non NWS site. Station does not report precipitation (e.g. rain,
    snow, etc.), thunder, or fog.

DCZ001-MDZ009-015-VAZ040>042-051-053>054-121800-
WASHINGTON METRO

CITY           SKY/WX    TMP DP  RH WIND       PRES   REMARKS
WASHINGTON NAT CLOUDY    28   6  39 SW9       30.23F WCI  19
DULLES         PTSUNNY   27   5  39 S7        30.19F
ANDREWS AFB    MOSUNNY   28   4  37 VRB6      30.19F
FT BELVOIR     CLOUDY    27   6  39 SW6       30.22F
QUANTICO       PTSUNNY   29   8  41 S7        30.23F
COLLEGE PARK*  FAIR      28   3  34 CALM      30.21F
LEESBURG*      CLOUDY    30  10  43 S8        30.19F WCI  23
MANASSAS*      MOSUNNY   28   9  43 S8        30.21F WCI  20
GAITHERSBURG*  MOSUNNY   25   5  42 S3        30.21F

$$

MDZ006>007-011-014-121800-
BALTIMORE METRO

CITY           SKY/WX    TMP DP  RH WIND       PRES   REMARKS
BWI AIRPORT    CLOUDY    24   2  38 VRB3      30.21F
MD SCIENCE CTR   N/A     26   2  35 MISG      30.22F
MARTIN STATE   PTSUNNY   27   7  43 CALM      30.25F
ANNAPOLIS      MOSUNNY   25   8  48 SE10      30.23F WCI  15
FORT MEADE*    CLOUDY    27   5  39 CALM      30.23F

$$

MDZ012-015-019>023-121800-
MARYLAND EASTERN SHORE

CITY           SKY/WX    TMP DP  RH WIND       PRES   REMARKS
OCEAN CITY     CLOUDY    24   5  44 SW6       30.24F
SALISBURY      MOSUNNY   28   5  37 CALM      30.23F
BAY BRIDGE AP*   N/A     27   3  36 CALM      30.23F
CAMBRIDGE*     SUNNY     28   5  37 SW3       30.22F
EASTON*        PTSUNNY   27   7  43 SW8       30.27F WCI  18

$$

MDZ017>025-121800-
SOUTHERN MARYLAND

CITY           SKY/WX    TMP DP  RH WIND       PRES   REMARKS
PATUXENT RIVER CLOUDY    27   5  39 SE8       30.22F WCI  19
ST INIGOES     CLOUDY    27   4  37 MISG      30.23F
LEONARDTOWN*     N/A     28   5  37 MISG        N/A

$$

MDZ003>005-121800-
NORTH CENTRAL MARYLAND

CITY           SKY/WX    TMP DP  RH WIND       PRES   REMARKS
FREDERICK*     PTSUNNY   25   9  50 W7        30.23F
HAGERSTOWN APT PTSUNNY   22   3  44 SW6       30.14F
WESTMINSTER*   MOSUNNY   21  10  63 CALM      30.15F

$$

MDZ501>502-121800-
WESTERN MARYLAND

CITY           SKY/WX    TMP DP  RH WIND       PRES   REMARKS
OAKLAND*       CLOUDY    14   3  62 W8        29.93F WCI   3
CUMBERLAND*    MOSUNNY   25  10  54 SE6       30.15F

$$

VAZ025>031-121800-
SHENANDOAH VALLEY

CITY           SKY/WX    TMP DP  RH WIND       PRES   REMARKS
WINCHESTER*    CLOUDY    28   9  43 S7        30.13F
FRONT ROYAL*   CLOUDY    30   9  40 CALM      30.12F
LURAY*         CLOUDY    28   9  43 SW10      30.11F WCI  19
NEW MARKET*    CLOUDY    28  10  46 SW10G16   30.09F WCI  18
STAUNTON*      CLOUDY    32  10  39 S9        30.11F WCI  24
WAYNESBORO*    CLOUDY    27   4  38 S8        30.09F WCI  19

$$

WVZ021-048>050-054>055-121800-
EASTERN WEST VIRGINIA PANHANDLE

CITY           SKY/WX    TMP DP  RH WIND       PRES   REMARKS
MARTINSBURG    FAIR      26   5  40 S10       30.15F WCI  16
PETERSBURG*    CLOUDY    26   8  45 CALM      30.10F

$$

VAZ036>039-050-121800-
CENTRAL FOOTHILLS

CITY           SKY/WX    TMP DP  RH WIND       PRES   REMARKS
CHARLOTTESVILL FAIR      28   4  35 SW10      30.16F WCI  19
CULPEPER*      CLOUDY    29   7  39 S9        30.20F WCI  21
ORANGE*        PTSUNNY   32   5  32 S9        30.20F WCI  24
GORDONSVILLE*  PTSUNNY   28   6  38 S7        30.17F
WARRENTON*     FAIR      30  11  45 S3        30.18F

$$

VAZ055>057-121800-
NORTH AND CENTRAL PIEDMONT

CITY           SKY/WX    TMP DP  RH WIND       PRES   REMARKS
FREDERICKSBRG* FAIR      29   8  41 S10       30.21F WCI  19
STAFFORD*      CLOUDY    28   5  37 S8        30.25F WCI  20

$$

NCZ024-NYZ072-PAZ021-071-VAZ022-071-121800-
OTHER REGIONAL OBSERVATIONS

CITY           SKY/WX    TMP DP  RH WIND       PRES   REMARKS
NEW YORK CITY  SUNNY     25  -1  32 NW7       30.20F
PHILADELPHIA   CLOUDY    24   0  35 SW8       30.23F WCI  15
PITTSBURGH     CLOUDY    18   5  57 SW9       30.07F WCI   7
ROANOKE        CLOUDY    28   6  39 SE9       30.15F WCI  19
RICHMOND       CLOUDY    25   5  42 VRB5      30.23F
RALEIGH        CLOUDY    30   8  39 VRB3      30.19F

$$

ANZ530>537-121800-
MARINE OBSERVATIONS

STATION/POSITION TIME  TEMP    WIND        PRES
                       AIR SEA DIR/SP/G
                 (UTC) (F)     (DEG/KT/KT) (MB)
THOMAS PT LIGHT  1700   23 36  150/  6/  8 1024.3F
BALT KEY BRIDGE  1600   22      90/  5/  6 1024.8F
COVE POINT       1600   22     120/  4/  5 1025.4F
LEWISETTA        1600   24 38  110/  2/  4 1024.8F
SOLOMONS ISLAND  1600   25 38  100/  1/  3   N/A
PINEY POINT      1600             CALM       N/A

$$





USA.gov is the U.S. government's official web portal to all federal, state and local government web resources and services.